TIME,DELAY(SENSOR),PRES,OXYGEN,RAWTEMP,T(OPTODE),TCPHASE,FLUOR,BETA(BETA700),BETA(BETA412),BETA(BETA440),CDOM,C(CSC),ED(ED412.40),ED(ED444.00),ED(ED489.70),ED(ED554.30),LU(LU411.80),LU(LU443.40),LU(LU489.60),LU(LU554.10),COMP,TILTX,TILTY,CHECK
1363492569,5807,850.1699829101562000,43.4094810485839840,657.8333740234375000,4.6992740631103520,54.4637107849121100,52,100,86,79,80,14744,2147753673,2147423872,2148011309,2147872064,2147640466,2147062390,2148254774,2147195419,771,4,14,50241
1363496165,5809,933.8300170898438000,46.4212684631347660,667.0784912109375000,4.3946571350097660,54.1393890380859400,53,101,90,80,80,14743,2147756278,2147424000,2148013513,2147877339,2147644315,2147057654,2148258523,2147195840,485,4,13,44116
1363499765,5807,958.7800292968750000,46.9161415100097660,668.2468261718750000,4.3560957908630370,54.0776786804199200,53,100,88,79,81,14746,2147756086,2147422272,2148011940,2147879296,2147640978,2147057600,2148260946,2147197184,466,4,13,639
1363503365,5807,976.0399780273438000,47.9884490966796900,670.6837768554688000,4.2756061553955080,53.9558601379394500,52,100,83,78,81,14745,2147756160,2147424557,2148012086,2147876516,2147641243,2147053147,2148258358,2147192704,141,4,13,2047
1363506965,5811,975.6099853515625000,48.6713218688964840,672.6572875976562000,4.2103772163391110,53.8903198242187500,52,99,90,79,80,14740,2147754816,2147424649,2148013851,2147875666,2147643181,2147058029,2148261723,2147197613,153,4,13,13235
1363510565,5808,984.7899780273438000,48.8929100036621100,672.9954223632812000,4.1991958618164060,53.8595314025878900,53,99,86,79,81,14743,2147755675,2147423963,2148011245,2147878985,2147645293,2147052653,2148262729,2147199149,2971,4,13,10382
1363514165,5810,981.7999877929688000,48.6557006835937500,672.6068725585938000,4.2120418548583980,53.8883094787597660,53,99,90,80,80,14746,2147754678,2147426450,2148015561,2147877275,2147640877,2147057554,2148261997,2147192566,236,4,13,8531
1363517765,5810,989.9600219726562000,48.9820289611816400,672.9249877929688000,4.2015252113342285,53.8465805053710940,52,100,87,80,80,14742,2147756498,2147425115,2148012498,2147876717,2147641417,2147060489,2148260288,2147197750,3180,4,13,299
1363521365,5809,991.3200073242188000,48.9701499938964840,672.7741088867188000,4.2065138816833500,53.8519401550293000,52,100,86,80,81,14744,2147754678,2147424301,2148011090,2147876324,2147641106,2147059529,2148265014,2147193033,271,4,13,20321
1363524965,5807,990.2199707031250000,48.4049415588378900,672.8937988281250000,4.2025570869445800,53.9300117492675800,53,101,87,79,80,14745,2147759588,2147426797,2148013385,2147874276,2147641499,2147057600,2148262582,2147195931,3410,4,13,32590
1363528565,5810,981.9000244140625000,48.4547309875488300,673.4061279296875000,4.1856141090393070,53.9280204772949200,53,100,87,79,81,14746,2147756736,2147428315,2148010944,2147875739,2147643364,2147057856,2148265042,2147194550,243,4,13,3464
1363532165,5810,980.0700073242188000,48.9346313476562500,673.9298095703125000,4.1682929992675780,53.8644218444824200,53,98,88,79,80,14744,2147759716,2147427172,2148012141,2147876077,2147644178,2147060416,2148260964,2147198491,3190,4,13,30583
1363535765,5811,985.4000244140625000,48.9230308532714840,674.2219848632812000,4.1586279869079590,53.8699798583984400,53,98,84,80,79,14743,2147758070,2147425517,2148010880,2147878811,2147644132,2147061796,2148261321,2147196406,214,4,13,64899
1363539365,5808,984.9600219726562000,48.9154090881347660,674.1605834960938000,4.1606578826904300,53.8725700378418000,52,97,83,79,81,14744,2147756772,2147425828,2148013019,2147873133,2147640822,2147059035,2148264402,2147195410,126,4,13,18600
1363542965,5809,999.3499755859375000,48.6546211242675800,672.6561889648438000,4.2104129791259770,53.8919601440429700,52,99,88,79,80,14743,2147758189,2147425728,2148010614,2147874093,2147641691,2147056704,2148257874,2147196608,82,4,13,17974
1363546565,5811,998.7600097656250000,47.9281806945800800,672.1209106445312000,4.2281088829040530,53.9841384887695300,52,98,88,78,81,14739,2147752566,2147427657,2148011209,2147875766,2147642112,2147062162,2148260809,2147196425,163,4,13,48264
1363550165,5810,1005.1799926757812000,48.0066490173339840,671.0067138671875000,4.2649378776550290,53.9601898193359400,52,97,86,77,79,14740,2147756397,2147422774,2148012653,2147873837,2147641362,2147058148,2148261787,2147196534,398,4,13,58580
1363553765,5811,993.1300048828125000,47.5630302429199200,671.6489868164062000,4.2437081336975100,54.0303611755371100,53,99,86,79,79,14739,2147758500,2147423707,2148011858,2147874742,2147642386,2147057828,2148259620,2147197952,8,4,13,52670
1363557365,5811,1000.0200195312500000,47.8590202331543000,671.1448974609375000,4.2603697776794430,53.9799003601074200,52,97,91,79,80,14741,2147755675,2147422418,2148014838,2147873636,2147646912,2147062884,2148263378,2147196196,3123,4,13,55738
1363560965,5805,999.3200073242188000,47.9829788208007800,671.8308715820312000,4.2376980781555180,53.9757385253906250,53,97,89,78,80,14740,2147753572,2147426304,2148010496,2147875940,2147642130,2147058925,2148262144,2147197376,482,4,13,62342
1363564565,5810,989.2500000000000000,47.7292404174804700,672.7670288085938000,4.2067508697509770,54.0183792114257800,53,99,86,80,80,14740,2147754258,2147425846,2148013814,2147875638,2147640804,2147058212,2148258816,2147196480,15,4,13,52123
1363568165,5806,999.1500244140625000,48.4378318786621100,673.1326904296875000,4.1946578025817870,53.9263992309570300,52,101,86,79,81,14737,2147757174,2147425682,2148012854,2147876059,2147642395,2147060489,2148262966,2147199451,3417,4,13,62829
1363571765,5813,999.4799804687500000,48.4247703552246100,672.7573852539062000,4.2070670127868650,53.9220695495605500,52,98,85,81,81,14709,2147757193,2147425462,2148011300,2147876708,2147641654,2147057901,2148259337,2147197586,83,4,13,8322
1363575365,5812,988.5800170898438000,48.3501701354980500,673.6759033203125000,4.1766910552978520,53.9471511840820300,53,99,88,80,80,14708,2147756388,2147423725,2148010669,2147876672,2147644580,2147059940,2148264228,2147194614,392,4,13,45895
1363578965,5808,979.6799926757812000,49.1000213623046900,675.6229858398438000,4.1122698783874510,53.8681602478027340,52,103,84,79,80,14712,2147756827,2147425106,2148013494,2147875565,2147643108,2147065051,2148268489,2147195675,3342,4,13,48907
1363582565,5806,987.9199829101562000,49.4282302856445300,675.7047119140625000,4.1095638275146480,53.8217582702636700,52,98,85,77,81,14710,2147755126,2147426212,2148013997,2147877266,2147644525,2147060845,2148265481,2147201280,892,4,13,10806
1363586165,5806,1000.5700073242188000,48.6768913269043000,673.6312866210938000,4.1781649589538570,53.9016418457031250,52,102,88,78,80,14709,2147755995,2147425206,2148011940,2147876032,2147643776,2147052955,2148261467,2147197723,639,4,14,2156
1363589765,5809,1008.5200195312500000,48.4807205200195300,672.7686767578125000,4.2066922187805180,53.9160003662109400,53,100,87,78,81,14705,2147754861,2147421760,2148014390,2147875081,2147644059,2147060160,2148259200,2147199588,368,4,13,56246
1363593365,5810,1012.9099731445312000,47.8626098632812500,671.2532958984375000,4.2567877769470215,53.9847793579101560,52,98,87,78,81,14699,2147756617,2147423625,2148011254,2147876278,2147643812,2147062948,2148261266,2147199241,825,4,13,12664
1363596965,5806,1002.5000000000000000,47.5866394042968750,671.8552856445312000,4.2368907928466800,54.0324401855468750,52,99,87,79,80,14693,2147759689,2147424548,2148012096,2147873014,2147645129,2147060452,2148260324,2147196973,3363,4,13,19131
1363600565,5807,1000.7700195312500000,48.0536804199218750,672.4141845703125000,4.2184119224548340,53.9736900329589840,52,99,88,78,81,14695,2147759716,2147426797,2148012086,2147876370,2147639296,2147060982,2148259529,2147194614,3532,4,13,34578
1363604165,5810,997.7399902343750000,48.6482582092285160,673.4614868164062000,4.1837830543518070,53.8985710144043000,52,97,83,81,80,14696,2147756187,2147424804,2148009472,2147875922,2147641024,2147059382,2148261019,2147200365,3143,4,13,8952
1363607765,5809,995.0399780273438000,48.3721504211425800,673.4041137695312000,4.1856799125671390,53.9376792907714840,52,99,91,78,80,14693,2147755757,2147421814,2148012480,2147873490,2147645586,2147058221,2148266870,2147199003,3475,4,13,47421
1363611365,5809,994.2999877929688000,48.4324989318847660,674.0510253906250000,4.1642861366271970,53.9396095275878900,52,102,85,79,81,14693,2147757595,2147421449,2148011666,2147877120,2147645686,2147055798,2148266532,2147196443,3323,4,13,55255
1363614965,5810,992.4199829101562000,49.0786590576171900,674.2976074218750000,4.1561260223388670,53.8516693115234400,53,102,88,96,81,14692,2147755419,2147425280,2148009974,2147877174,2147643044,2147061906,2148263844,2147195328,3423,4,13,30760
1363618565,5809,989.9299926757812000,48.9180793762207000,675.3344116210938000,4.1218199729919430,53.8846511840820300,52,98,88,78,80,14695,2147760420,2147424585,2148011776,2147871104,2147643940,2147055808,2148263424,2147192301,66,4,13,26720
1363622165,5810,994.3599853515625000,48.7550392150878900,674.8358154296875000,4.1383190155029300,53.9012718200683600,52,111,92,79,81,14691,2147755629,2147424164,2148009600,2147876845,2147644086,2147059949,2148260160,2147193106,401,4,13,33139
1363625765,5806,1000.4600219726562000,49.2703704833984400,674.6818847656250000,4.1434102058410645,53.8320388793945300,53,102,84,81,80,14693,2147758921,2147423826,2148010313,2147876379,2147642624,2147059638,2148264182,2147196763,3135,4,13,44233
1363629365,5806,998.5900268554688000,48.8765411376953100,674.6671142578125000,4.1439018249511720,53.8865089416503900,52,100,87,80,81,14695,2147756736,2147421257,2148012105,2147876745,2147640402,2147055076,2148257060,2147197741,3424,4,13,34918
1363632965,5811,1000.7999877929688000,48.7920989990234400,673.0568237304688000,4.1971678733825680,53.8760108947753900,52,99,88,79,81,14694,2147756013,2147423387,2148013248,2147875803,2147643547,2147056320,2148265499,2147196973,3547,4,13,17541
1363636565,5803,1011.3400268554688000,48.5976791381835940,671.8845825195312000,4.2359218597412110,53.8871994018554700,52,97,87,79,80,14692,2147757357,2147423305,2148012315,2147877549,2147642413,2147056749,2148263561,2147193718,477,4,13,772
1363637456,5807,1008.8200073242188000,48.5761795043945300,671.1802978515625000,4.2591991424560550,53.8833618164062500,52,98,87,78,80,14706,2147756041,2147422573,2148007497,2147876726,2147644086,2147056914,2148261193,2147194395,185,4,13,32435
